This demonstration page uses our WeatherBlox Daily Observations layout. Learn more.

Left ArrowRight Arrow

31.84235, -102.49876

Hourly Observations for March 28, 2017

Temp ( °F °C ) Dew Point ( °F °C ) Humidity (%) Winds ( mph kmh ) Pressure ( in mb ) Visibility ( mi km ) Precip ( " mm )
12:53 am 00:53 Clear 65 18.3 36 2.2 34 34 ESE 14 22 29.71 1006 10 16 0.00 0.00
1:53 am 01:53 Clear 63 17.2 39 3.9 41 41 ESE 12 19 29.69 1005 10 16 0.00 0.00
2:53 am 02:53 Clear 62 16.7 41 5 46 46 SE 14 22 29.66 1004 10 16 0.00 0.00
3:53 am 03:53 Clear 62 16.7 45 7.2 54 54 SE 14 22 29.63 1004 10 16 0.00 0.00
4:21 am 04:21 Mostly Cloudy 62 16.7 48 8.9 60 60 SE 13 20 29.65 1004 10 16 0.00 0.00
4:33 am 04:33 Partly Cloudy 62 16.7 51 10.6 67 67 SSE 13 20 29.65 1004 10 16 0.00 0.00
4:53 am 04:53 Clear 62 16.7 53 11.7 73 73 SSE 13 20 29.61 1003 10 16 0.00 0.00
5:49 am 05:49 Mostly Cloudy 66 19 59 15 78 78 S 15 24 29.65 1004 7 11 0.00 0.00
5:53 am 05:53 Mostly Cloudy 67 19.4 59 15 76 76 S 15 24 29.62 1003 7 11 0.00 0.00
6:53 am 06:53 Mostly Cloudy with Haze 68 20 60 15.6 76 76 S 13 20 29.60 1002 6 10 0.00 0.00
7:53 am 07:53 Hazy 66 18.9 59 15 78 78 SSE 16 26 29.60 1002 4 6 0.00 0.00
8:53 am 08:53 Hazy 68 20 60 15.6 76 76 S 16 26 29.61 1003 5 8 0.00 0.00
9:53 am 09:53 Sunny 71 21.7 59 15 66 66 S 23 37 29.62 1003 7 11 0.00 0.00
10:53 am 10:53 Sunny 75 23.9 57 13.9 54 54 S 24 39 29.62 1003 9 14 0.00 0.00
11:53 am 11:53 Sunny 78 25.6 52 11.1 40 40 SSW 17 28 29.60 1002 10 16 0.00 0.00
12:53 pm 12:53 Sunny 81 27.2 37 2.8 21 21 W 13 20 29.58 1002 10 16 0.00 0.00
1:53 pm 13:53 Sunny 83 28.3 33 0.6 17 17 W 15 24 29.55 1001 10 16 0.00 0.00
2:53 pm 14:53 Sunny 84 28.9 32 0 15 15 WSW 15 24 29.51 999 10 16 0.00 0.00
3:53 pm 15:53 Sunny 83 28.3 30 -1.1 15 15 WSW 10 17 29.47 998 10 16 0.00 0.00
4:53 pm 16:53 Sunny 85 29.4 29 -1.7 13 13 W 3 6 29.41 996 10 16 0.00 0.00
5:33 pm 17:33 Partly Cloudy with Nearby Thunderstorms 81 27.2 29 -1.7 15 15 SE 6 9 29.35 994 10 16 0.00 0.00
5:53 pm 17:53 Partly Cloudy with Nearby Thunderstorms 81 27.2 29 -1.7 15 15 WNW 10 17 29.40 996 10 16 0.00 0.00
6:19 pm 18:19 Partly Cloudy with Thunderstorms 68 20 44 6.7 42 42 undefined N/A 29.44 997 5 8 0.01 0.25
6:37 pm 18:37 Partly Cloudy with Nearby Thunderstorms 64 17.8 48 8.9 56 56 undefined N/A 29.47 998 9 14 0.06 1.52
6:53 pm 18:53 Partly Cloudy with Nearby Thunderstorms 64 17.8 48 8.9 56 56 undefined N/A 29.49 999 10 16 0.07 1.78
7:14 pm 19:14 Partly Cloudy with Light Rain 66 18.9 45 7.2 47 47 undefined N/A 29.50 999 10 16 0.01 0.25
7:53 pm 19:53 Sunny 62 16.7 40 4.4 44 44 undefined N/A 29.56 1001 7 11 0.01 0.25
8:53 pm 20:53 Clear 60 15.6 38 3.3 44 44 undefined N/A 29.59 1002 10 16 0.00 0.00
9:53 pm 21:53 Clear 59 15 38 3.3 46 46 undefined N/A 29.60 1002 10 16 0.00 0.00
10:53 pm 22:53 Clear 57 13.9 38 3.3 49 49 undefined N/A 29.62 1003 10 16 0.00 0.00
11:53 pm 23:53 Clear 56 13.3 33 0.6 42 42 undefined N/A 29.65 1004 10 16 0.00 0.00

Powered by AerisWeather